Location: Berduj
(43.0019°N, 22.3781°E)
Time: 05:10:49
(UTC+00:00)

Cosmos 1802 Rocket - Pass Details

Date: 19 October 2019
Orbit: 954 x 1011 km, 82.9° (Epoch: 18 November)

Event Time Altitude Azimuth Distance (km) Brightness Sun altitude
Rises 18:18:54 0° 350° (N) 3,756 7.4 -29.2°
Reaches altitude 10° 18:21:27 10° 348° (NNW) 2,800 6.7 -29.7°
Maximum altitude 18:27:51 72° 266° (W) 1,060 4.2 -30.8°
Enters shadow 18:29:16 54° 204° (SSW) 1,203 4.4 -31.1°
